Location: Middle Street
(51.7167°N, 0.0333°E)
Time: 23:14:18
(UTC+00:00)

ATLAS 2AS CENTAUR R/B - Pass Details

Date: 20 January 2021
Orbit: 947 x 1265 km, 63.7° (Epoch: 13 February)

Event Time Altitude Azimuth Distance (km) Brightness Sun altitude
Rises 20:01:50 0° 282° (WNW) 4,220 6.9 -32.6°
Reaches altitude 10° 20:05:02 10° 292° (WNW) 3,238 6.0 -33.1°
Maximum altitude 20:12:02 34° 355° (N) 1,903 4.0 -34.1°
Enters shadow 20:12:55 33° 8° (N) 1,924 3.9 -34.3°
